Find Starlink 1736

NORAD ID: 46585 Int'l Des: 2020-070 Owner: SPXS Country: US Constellation: starlink decayed
LEOCIRCULAR

Re-entered — Jun 15, 2026

3D地球を読み込み中...

About Starlink 1736

Starlink 1736 (NORAD 46585) is a starlink constellation satellite (v1.0) launched Oct 6, 2020 by SPXS of US. It re-entered the atmosphere on Jun 15, 2026. with a mass of 260.00 kg.

Starlink 1736について

説明を読み込み中...

高度履歴

Loading altitude history...

軌道要素

1 46585U 20070BF 26166.72677462 .11009302 12527-4 34523-3 0 9996
2 46585 53.0176 341.7037 0009224 287.5605 72.4435 16.44221195315882
Epoch: Jun 15, 2026 • Age: 652 hours

現在のステータス

Position data unavailable
打ち上げ日 Oct 6, 2020
運用期間 5.7 years
落下予定日 Jun 15, 2026
タイプ internet

技術仕様

分類 Payload
質量 260.00 kg
乾燥質量 248.00 kg
総質量 260.00 kg
長さ 0.20 m
直径 2.80 m
スパン 9.00 m
形状 Box + pan
製造者 SPXS
バスタイプ Starlink
フェーズステータス Unknown Transfer Status
所有者/国 SPXS/US

Most Searched